{"data":{"norad_id":63377,"epoch":"2026-05-25T04:25:22.399392Z","epoch_age_seconds":55626,"freshness":"FRESH","line1":"1 63377U 25063Q   26145.18428703  .00015017  00000+0  51797-3 0  9998","line2":"2 63377  53.1584  56.9705 0001085  87.1331 272.9794 15.30209394 66472","mean_motion":15.30209394,"eccentricity":0.0001085,"inclination_deg":53.1584,"raan_deg":56.9705,"arg_perigee_deg":87.1331,"mean_anomaly_deg":272.9794,"bstar":0.00051797,"rev_number":6647,"period_min":94.104767990988,"perigee_km":474.44343511584,"apogee_km":475.93060642835,"semimajor_km":6853.3240207721,"source":"CELESTRAK","updated_at":"2026-05-25T13:38:19.964661Z"}}